Orbital Elements at Epoch 2459000.5 (2020-May-31.0) TDB
Reference: JPL 21 (heliocentric ecliptic J2000)
Element | Value | Uncertainty (1-sigma) | Units |
e | .2220298409506318 | 5.8911e-08 | |
a | 2.422741755648831 | 1.0806e-08 | au |
q | 1.884820788977666 | 1.4169e-07 | au |
i | 2.750176234670032 | 5.7114e-06 | deg |
node | 43.99354983399422 | 8.595e-05 | deg |
peri | 338.3586726440911 | 8.6318e-05 | deg |
M | 177.0034562171558 | 8.7782e-06 | deg |
tp | 2458323.266614591311 (2018-Jul-23.76661459) | 3.1222e-05 | TDB |
period | 1377.39693878078 3.77 | 9.2154e-06 2.523e-08 | d yr |
n | .2613625672194818 | 1.7486e-09 | deg/d |
Q | 2.960662722319995 | 1.3205e-08 | au |
|
| | Orbit Determination Parameters
Additional Information
|